STARLINK-5696, 55484

Orbit data source: Space-Track

STARLINK-5696, 55484 is a payload satellite owned by SpaceX/Seattle (US) in LEO that was launched on Thu, 02 Feb 2023 UTC via an FALCON 9 launch vehicle from the Air Force Eastern Test Range (AFETR). Payload-class satellites include a variety of spacecraft equipped with specific instruments for various scientific and technological missions. These include communications satellites like Starlink; space stations such as the ISS; scientific satellites like the Hubble; Earth observation satellites from companies like Planet Labs, Umbra, and HawkEye 360; GPS; miniature CubeSats for education and research; and military/defense satellites.

Loading next visibility...
Identifier
55484, 2023-015AM
Orbit
LEO
Country
Flag of USUS
Related business
Manufacturer
SpaceX/Seattle
Mission
Operational Commercial Communications
Bus & Motor
STARLINK, Unknown motor
Mass
305 kg wet, ~290 kg dry
Launch date (UTC)
2023-02-02 (3 years ago)
Launch vehicle
FALCON 9
Launch site
Air Force Eastern Test Range (AFETR)
Object type
Payload
Rocket body
Debris
Shape & HBR
Box + 1 Pan, 10.1 m
Radar Cross Section
13.562 m², Large (>1 m²)

Expand to show TLE details & history
Last TLE update: 11 hours ago

TLE from 11 hours ago
0 STARLINK-5696
1 55484U 23015AM  25302.51992653 -.00000850  00000-0 -47870-4 0  9994
2 55484  43.0033 331.6366 0001105 268.5826  91.4890 15.02538902150870
Epoch: 2025-10-29T12:28Z
TLE epoch observation values (Epoch: 2025-10-29T12:28:41.652Z)
Latitude
0.00001°
Longitude
106.37117°
Altitude
558.869 km
Speed
7.584 km/s
True Right ascension
22h 06m 32s
True Declination
0° 00' 00"
Sunlit
Object was in full shadow at epoch
Visualization orbit readout
Latitude
Unknown
Longitude
Unknown
Altitude
Unknown
Speed
Unknown
Apparent Right ascension
Unknown
Apparent Declination
Unknown
Sunlit
N/A
Visualization observer readout
Local Sidereal Time
18:39:42
Azimuth
Unknown
Elevation
Unknown
Doppler factor
Unknown
Orbital elements
Apogee altitude
561.761 km
Perigee altitude
560.227 km
Semi-major axis
6,939.131 km
Eccentricity
0.00011
Inclination
43.0033°
RAAN
331.6366°
Arg. of periapsis
268.5826°
True anomaly
91.50166°
Mean anomaly
91.489°
Eccentric anomaly
91.49533°
Mean motion
3.75479 °/min
Orbital period
95.88 mins
BSTAR
-0.00004787
Loading maneuver chart data...
Computing Atmospheric mass density...
Loading historical data...
Loading historical data...
Loading historical data...
Loading historical data...
Loading historical data...
Loading historical data...
Loading historical data...

Documentation

Showing up to 5 results
|